Погода в Куйбышеве

Россия / Волгоградская область     48°40′42″N   44°51′12″E
темп.,
°C
ветер,
м/с
пор.,
м/с
влажн.,
%
обл.,
%
осадки,
мм/ч
давл.,
гПа
погр.,
м
12 апреля, пн
пн1200:00+15в4135264 0.0 1022277
03:00+14в4134770 0.0 1022284
06:00+12всв41149100 0.0 1023263
09:00+17вюв6104363 0.0 1024572
12:00+21вюв8103340 0.0 10241260
15:00+23вюв8112567 0.0 10241965
18:00+21в61132100 0.0 10241289
21:00+17вюв4944100 0.0 1026294
13 апреля, вт
вт1300:00+14в4104865 0.0 1026244
03:00+13всв4114529 0.0 1026257
06:00+12в5144048 0.0 1026359
09:00+17вюв61232100 0.0 1027529
12:00+21вюв7102210 0.0 10261415
15:00+22вюв810200 0.0 10251927
18:00+20в510280 0.0 10241338
21:00+16вюв49390 0.0 1024293
14 апреля, ср
ср1400:00+13в374527 0.0 1023157
03:00+12в374649 0.0 1023172
06:00+11всв3850100 0.0 1022204
09:00+16в5935100 0.0 1022459
12:00+21в692699 0.0 10201488
15:00+22вюв682283 0.0 10192376
18:00+21в3629100 0.0 1018882
21:00+17в494198 0.0 1018247
15 апреля, чт
чт1500:00+14в35495 0.0 1017126
03:00+13вюв234827 0.0 101766
06:00+12всв234559 0.0 101758
09:00+17всв34339 0.0 1017353
12:00+22в4623100 0.0 10151326
15:00+24юв5622100 0.0 10142703
18:00+22вюв462794 0.0 10131351
21:00+18вюв373922 0.0 1013167
16 апреля, пт
пт1600:00+15ююз12480 0.0 101355
03:00+14зсз235431 0.0 101356
06:00+14зсз2359100 0.0 101361
09:00+18з3347100 0.0 1014456
12:00+20з443788 0.0 10141621
15:00+21з543416 0.0 10142190
18:00+19з554498 0.0 1014974
21:00+16з4754100 0.0 1015506